Flag for Mozambique

Past Weather in Maputo, Mozambique — Yesterday and Last 2 Weeks

Now
70 °F

Partly sunny.


Feels Like: 70 °F
Forecast: 88 / 69 °F
Wind: 3 mph from Southwest

Location: Maputo / Mavalane
Current Time: Oct 24, 2020 at 6:31:11 am
Latest Report: Oct 24, 2020 at 6:00 am
Visibility: N/A
Pressure30.09 "Hg
Humidity: 88%
Dew Point: 66 °F
Location of MaputoLocation

Past Weather in Maputo — Graph

°F

Maputo Temperature Yesterday

Maximum temperature yesterday: 82 °F (at 1:00 pm)
Minimum temperature yesterday: 72 °F (at 1:00 am)
Average temperature yesterday: 75 °F

High & Low Weather Summary for the Past Weeks

 TemperatureHumidityPressure
High91 °F (Oct 9, 1:00 pm)94% (Oct 11, 4:00 pm)30.33 "Hg (Oct 11, 4:00 pm)
Low59 °F (Oct 11, 9:00 pm)28% (Oct 13, 4:00 pm)29.74 "Hg (Oct 9, 2:00 pm)
Average72 °F72%30.08 "Hg
* Reported Oct 9 5:00 am — Oct 24 5:00 am, Maputo. Weather by CustomWeather, © 2020

Note: Actual official high and low records may vary slightly from our data, if they occured in-between our weather recording intervals... More about our weather records

Maputo Weather History for the Previous 24 Hours

Scroll right to see more
 ConditionsComfort  
Time TempWeatherWind HumidityBarometerVisibility
5:00 am
Sat, Oct 24
70 °FPassing clouds.3 mph88%30.07 "HgN/A
4:00 am68 °FPassing clouds.5 mph88%30.07 "HgN/A
3:00 am72 °FPassing clouds.3 mph83%30.07 "HgN/A
1:00 am72 °FPassing clouds.3 mph83%30.09 "HgN/A
12:00 am72 °FPassing clouds.3 mph83%30.09 "HgN/A
10:00 pm
Fri, Oct 23
72 °FPassing clouds.3 mph83%30.09 "HgN/A
9:00 pm73 °FPassing clouds.8 mph78%30.09 "HgN/A
8:00 pm73 °FPassing clouds.7 mph78%30.07 "HgN/A
7:00 pm73 °FPassing clouds.12 mph78%30.04 "HgN/A
6:00 pm75 °FPassing clouds.14 mph74%30.04 "HgN/A
5:00 pm77 °FPassing clouds.8 mph65%30.04 "HgN/A
4:00 pm79 °FPassing clouds.10 mph61%30.04 "HgN/A
3:00 pm79 °FPassing clouds.13 mph65%30.04 "HgN/A
2:00 pm81 °FPassing clouds.10 mph62%30.07 "HgN/A
1:00 pm82 °FPassing clouds.10 mph55%30.09 "HgN/A
12:00 pm81 °FScattered clouds.6 mph54%30.12 "HgN/A
11:00 am79 °FBroken clouds.7 mph61%30.12 "HgN/A
10:00 am75 °FPartly sunny.3 mph69%30.15 "HgN/A
9:00 am73 °FPartly sunny.3 mph74%30.18 "HgN/A
8:00 am72 °FPartly sunny.2 mph83%30.18 "HgN/A
7:00 am72 °FDrizzle. Partly sunny.6 mph83%30.18 "Hg6 mi
6:00 am73 °FPartly sunny.3 mph78%30.15 "HgN/A
Weather by CustomWeather, © 2020

See weather overview